McAllen, TX

10:12 AM CDT on September 23, 2017 (GMT -0500)
McAllen Miller International

Weather History for KMFE - June, 2013

Change the Weather History Date:

Saturday, June 22, 2013

  Actual Average Record
Temperature  
Mean Temperature 88 °F 86 °F  
Max Temperature 98 °F 97 °F 111 °F (2017)
Min Temperature 77 °F 76 °F 69 °F (1961)
Degree Days  
Heating Degree Days 0 0  
Month to date heating degree days 0 0  
Since 1 June heating degree days 0 0  
Since 1 July heating degree days 318 579  
Cooling Degree Days 23 21  
Month to date cooling degree days 487 456  
Year to date cooling degree days 1783 1711  
Since 1 June cooling degree days 487 456  
Growing Degree Days 37 (Base 50)    
Moisture  
Dew Point 71 °F    
Average Humidity 61    
Maximum Humidity 91    
Minimum Humidity 30    
Precipitation  
Precipitation 0.00 in 0.09 in 2.50 in (2011)
Month to date precipitation 0.88 1.87  
Year to date precipitation 4.30 8.65  
Sea Level Pressure  
Sea Level Pressure 29.96 in    
Wind  
Wind Speed 15 mph (SE)    
Max Wind Speed 24 mph    
Max Gust Speed 32 mph    
Visibility 10 miles    
Events      
T = Trace of Precipitation, MM = Missing Value Source: NWS Daily Summary

Daily Weather History Graph

Daily Weather History Graph

Search for Another Location

Airport or City:

Trip Planner

Search our weather history database for the weather conditions in past years. The results will help you decide how hot, cold, wet, or windy it might be!

Date:

Astronomy

Jun. 22, 2013 Rise Set
Actual Time 6:41 AM CDT 8:28 PM CDT
Civil Twilight 6:15 AM CDT 8:54 PM CDT
Nautical Twilight 5:44 AM CDT 9:26 PM CDT
Astronomical Twilight 5:10 AM CDT 9:59 PM CDT
Moon 7:50 PM CDT (6/22) 5:50 AM CDT (6/22)
Length of Visible Light 14h 39m
Length of Day
13h 46m
Waxing Gibbous, 99% of the Moon is Illuminated
Jun 22
Waxing Gibbous
Jun 23
Full
Jun 29
Last Quarter
Jul 8
New
Jul 15
First Quarter

Hourly Weather History & Observations

Time (CDT) Temp. Heat Index Dew Point Humidity Pressure Visibility Wind Dir Wind Speed Gust Speed Precip Events Conditions
12:53 AM 81.0 °F 87.3 °F 75.9 °F 85% 29.99 in 10.0 mi SE 12.7 mph - N/A   Clear
1:36 AM 80.6 °F 86.2 °F 75.2 °F 84% 29.99 in 10.0 mi SE 12.7 mph - N/A   Mostly Cloudy
1:53 AM 81.0 °F 87.3 °F 75.9 °F 85% 29.99 in 10.0 mi SE 13.8 mph - N/A   Overcast
2:53 AM 81.0 °F 87.9 °F 77.0 °F 88% 29.99 in 10.0 mi SE 11.5 mph - N/A   Overcast
3:28 AM 80.6 °F 87.1 °F 77.0 °F 89% 29.99 in 10.0 mi SE 11.5 mph - N/A   Overcast
3:53 AM 80.1 °F 85.8 °F 77.0 °F 90% 29.99 in 10.0 mi SE 10.4 mph - N/A   Mostly Cloudy
4:53 AM 79.0 °F - 75.9 °F 90% 29.99 in 10.0 mi SSE 9.2 mph - N/A   Partly Cloudy
5:53 AM 78.1 °F - 73.9 °F 87% 29.98 in 10.0 mi SSE 9.2 mph - N/A   Clear
6:53 AM 77.0 °F - 72.0 °F 84% 29.98 in 10.0 mi SSE 10.4 mph - N/A   Clear
7:53 AM 79.0 °F - 72.0 °F 79% 29.97 in 10.0 mi SSE 8.1 mph - N/A   Clear
8:53 AM 82.0 °F 86.7 °F 72.0 °F 71% 29.99 in 10.0 mi SSE 16.1 mph - N/A   Clear
9:53 AM 84.9 °F 90.1 °F 71.1 °F 63% 30.00 in 10.0 mi SSE 12.7 mph 21.9 mph N/A   Clear
10:53 AM 89.1 °F 93.7 °F 69.1 °F 52% 30.01 in 10.0 mi SSE 18.4 mph - N/A   Clear
11:53 AM 90.0 °F 93.6 °F 68.0 °F 48% 30.00 in 10.0 mi SSE 18.4 mph 28.8 mph N/A   Clear
12:53 PM 95.0 °F 99.5 °F 68.0 °F 41% 29.99 in 10.0 mi SSE 16.1 mph 24.2 mph N/A   Clear
1:53 PM 95.0 °F 99.0 °F 66.9 °F 40% 29.97 in 10.0 mi SSE 15.0 mph 28.8 mph N/A   Scattered Clouds
2:53 PM 95.0 °F 97.4 °F 64.9 °F 37% 29.94 in 10.0 mi SSE 18.4 mph 32.2 mph N/A   Partly Cloudy
3:53 PM 97.0 °F 97.8 °F 62.1 °F 31% 29.92 in 10.0 mi SE 20.7 mph 27.6 mph N/A   Clear
4:53 PM 96.1 °F 96.0 °F 60.1 °F 30% 29.91 in 10.0 mi SE 19.6 mph 27.6 mph N/A   Clear
5:53 PM 93.9 °F 97.5 °F 66.9 °F 41% 29.88 in 10.0 mi SE 19.6 mph 27.6 mph N/A   Clear
6:53 PM 91.9 °F 94.5 °F 66.0 °F 42% 29.89 in 10.0 mi SE 18.4 mph 24.2 mph N/A   Clear
7:53 PM 89.1 °F 91.3 °F 66.0 °F 46% 29.90 in 10.0 mi SE 20.7 mph - N/A   Clear
8:53 PM 84.9 °F 88.8 °F 69.1 °F 59% 29.91 in 10.0 mi SE 16.1 mph - N/A   Clear
9:53 PM 82.9 °F 87.0 °F 70.0 °F 65% 29.93 in 10.0 mi SE 13.8 mph - N/A   Clear
10:53 PM 81.0 °F 84.9 °F 71.1 °F 72% 29.95 in 10.0 mi SE 16.1 mph - N/A   Clear
11:53 PM 80.1 °F 84.2 °F 73.0 °F 79% 29.97 in 10.0 mi SE 12.7 mph - N/A   Clear